Tucumcari, NM

7:30 PM MST on January 17, 2018 (GMT -0700)
Tucumcari Municipal

Weather History for KTCC - August, 2013

Change the Weather History Date:

Thursday, August 29, 2013

  Actual Average Record
Temperature  
Mean Temperature 84 °F -  
Max Temperature 99 °F 88 °F 100 °F (1922)
Min Temperature 70 °F 60 °F 49 °F (1976)
Cooling Degree Days 18    
Growing Degree Days 34 (Base 50)    
Moisture  
Dew Point 55 °F    
Average Humidity 39    
Maximum Humidity 63    
Minimum Humidity 23    
Precipitation  
Precipitation 0.00 in - - ()
Sea Level Pressure  
Sea Level Pressure 29.92 in    
Wind  
Wind Speed 10 mph (SSW)    
Max Wind Speed 16 mph    
Max Gust Speed 22 mph    
Visibility 10 miles    
Events      
Averages and records for this station are not official NWS values.
T = Trace of Precipitation, MM = Missing Value Source: NWS Daily Summary

Daily Weather History Graph

Daily Weather History Graph

Search for Another Location

Airport or City:

Trip Planner

Search our weather history database for the weather conditions in past years. The results will help you decide how hot, cold, wet, or windy it might be!

Date:

Astronomy

Aug. 29, 2013 Rise Set
Actual Time 6:24 AM MDT 7:24 PM MDT
Civil Twilight 5:58 AM MDT 7:50 PM MDT
Nautical Twilight 5:27 AM MDT 8:21 PM MDT
Astronomical Twilight 4:56 AM MDT 8:53 PM MDT
Moon 12:24 AM MDT (8/29) 2:48 PM MDT (8/29)
Length of Visible Light 13h 52m
Length of Day
12h 59m
Last Quarter, 37% of the Moon is Illuminated
Aug 29
Last Quarter
Sep 5
New
Sep 12
First Quarter
Sep 19
Full
Sep 26
Last Quarter

Hourly Weather History & Observations

Time (MDT) Temp. Heat Index Dew Point Humidity Pressure Visibility Wind Dir Wind Speed Gust Speed Precip Events Conditions
12:53 AM 77.0 °F - 55.9 °F 48% 29.95 in 10.0 mi SSW 10.4 mph - N/A   Clear
1:53 AM 73.9 °F - 55.9 °F 53% 29.95 in 10.0 mi SW 9.2 mph - N/A   Clear
2:53 AM 73.9 °F - 55.9 °F 53% 29.95 in 10.0 mi SW 11.5 mph - N/A   Clear
3:53 AM 72.0 °F - 55.9 °F 57% 29.95 in 10.0 mi WSW 5.8 mph - N/A   Clear
4:53 AM 70.0 °F - 55.9 °F 61% 29.95 in 10.0 mi SW 5.8 mph - N/A   Clear
5:53 AM 70.0 °F - 57.0 °F 63% 29.95 in 10.0 mi SSW 9.2 mph - N/A   Clear
6:53 AM 71.1 °F - 57.0 °F 61% 29.97 in 10.0 mi SSW 9.2 mph - N/A   Clear
7:53 AM 75.0 °F - 57.0 °F 53% 29.97 in 10.0 mi SSW 16.1 mph - N/A   Clear
8:53 AM 80.1 °F 80.4 °F 57.0 °F 45% 29.97 in 10.0 mi SSW 12.7 mph - N/A   Clear
9:53 AM 86.0 °F 85.0 °F 57.9 °F 38% 29.96 in 10.0 mi SW 10.4 mph - N/A   Clear
10:53 AM 90.0 °F 88.6 °F 57.0 °F 33% 29.95 in 10.0 mi SW 16.1 mph - N/A   Clear
11:53 AM 93.0 °F 91.1 °F 55.0 °F 28% 29.94 in 10.0 mi SSW 16.1 mph 21.9 mph N/A   Clear
12:53 PM 93.9 °F 91.4 °F 53.1 °F 25% 29.91 in 10.0 mi SW 9.2 mph 18.4 mph N/A   Clear
1:53 PM 96.1 °F 93.8 °F 54.0 °F 24% 29.90 in 10.0 mi SSW 6.9 mph - N/A   Clear
2:53 PM 97.0 °F 94.6 °F 53.1 °F 23% 29.87 in 10.0 mi SSW 13.8 mph 19.6 mph N/A   Clear
3:53 PM 96.1 °F 93.8 °F 54.0 °F 24% 29.86 in 10.0 mi SSW 11.5 mph - N/A   Clear
4:53 PM 97.0 °F 94.6 °F 53.1 °F 23% 29.85 in 10.0 mi South 8.1 mph - N/A   Clear
5:53 PM 97.0 °F 94.6 °F 53.1 °F 23% 29.85 in 10.0 mi South 10.4 mph - N/A   Clear
6:53 PM 93.9 °F 92.0 °F 55.0 °F 27% 29.85 in 10.0 mi SSW 10.4 mph - N/A   Clear
7:53 PM 90.0 °F 87.7 °F 54.0 °F 29% 29.87 in 10.0 mi South 11.5 mph - N/A   Clear
8:53 PM 87.1 °F 85.3 °F 55.0 °F 33% 29.88 in 10.0 mi SSW 11.5 mph - N/A   Clear
9:53 PM 84.0 °F 82.6 °F 54.0 °F 35% 29.90 in 10.0 mi SSW 10.4 mph - N/A   Clear
10:53 PM 82.0 °F 81.3 °F 54.0 °F 38% 29.91 in 10.0 mi SW 9.2 mph - N/A   Clear
11:53 PM 78.1 °F - 54.0 °F 43% 29.91 in 10.0 mi SSW 6.9 mph - N/A   Clear